Weather History for KCUL - December, 2012

Change the Weather History Date:

Saturday, December 1, 2012

  Actual Average (KEVV) Record (KEVV)
Temperature  
Mean Temperature 54 °F 40 °F  
Max Temperature 65 °F 49 °F 68 °F (1970)
Min Temperature 43 °F 31 °F 12 °F (1964)
Degree Days  
Heating Degree Days 11 25  
Month to date heating degree days 25  
Since 1 July heating degree days 886  
Cooling Degree Days 0 0  
Month to date cooling degree days 0  
Year to date cooling degree days 1397  
Growing Degree Days 4 (Base 50)    
Moisture  
Dew Point 47 °F    
Average Humidity 74    
Maximum Humidity 92    
Minimum Humidity 57    
Precipitation  
Precipitation 0.00 in 0.13 in 1.12 in (1986)
Month to date precipitation 0.13  
Year to date precipitation 41.68  
Snow  
Snow 0.00 in 0.00 in 4.30 in (1952)
Month to date snowfall 0.0  
Since 1 July snowfall 0.3  
Snow Depth -    
Sea Level Pressure  
Sea Level Pressure 30.13 in    
Wind  
Wind Speed 9 mph (SSE)    
Max Wind Speed 16 mph    
Max Gust Speed 21 mph    
Visibility 9 miles    
Events      
T = Trace of Precipitation, MM = Missing Value Source: NWS Daily Summary

Daily Weather History Graph

Daily Weather History Graph

Search for Another Location

Airport or City:

Trip Planner

Search our weather history database for the weather conditions in past years. The results will help you decide how hot, cold, wet, or windy it might be!

Date:

Astronomy

Dec. 01, 2012 Rise Set
Actual Time 6:50 AM CST 4:32 PM CST
Civil Twilight 6:21 AM CST 5:02 PM CST
Nautical Twilight 5:48 AM CST 5:34 PM CST
Astronomical Twilight 5:16 AM CST 6:06 PM CST
Moon 7:21 PM CST (12/1) 9:03 AM CST (12/1)
Length of Visible Light 10h 40m
Length of Day
9h 42m
Waning Gibbous, 91% of the Moon is Illuminated
Dec 1
Waning Gibbous
Dec 6
Last Quarter
Dec 13
New
Dec 19
First Quarter
Dec 28
Full

Hourly Weather History & Observations

Time (CST) Temp. Windchill Dew Point Humidity Pressure Visibility Wind Dir Wind Speed Gust Speed Precip Events Conditions
12:15 AM 44.8 °F 41.6 °F 41.9 °F 90% 30.15 in 10.0 mi South 5.8 mph - N/A   Clear
12:35 AM 45.0 °F 41.2 °F 41.9 °F 89% 30.15 in 7.0 mi South 6.9 mph - N/A   Clear
12:55 AM 44.2 °F 41.8 °F 41.5 °F 90% 30.15 in 7.0 mi SSE 4.6 mph - N/A   Clear
1:15 AM 45.5 °F 43.2 °F 42.3 °F 88% 30.16 in 7.0 mi South 4.6 mph - N/A   Clear
1:35 AM 45.5 °F 41.8 °F 41.9 °F 87% 30.17 in 10.0 mi South 6.9 mph - N/A   Clear
1:55 AM 45.0 °F 40.6 °F 42.1 °F 90% 30.18 in 10.0 mi South 8.1 mph - N/A   Mostly Cloudy
2:15 AM 43.2 °F 38.4 °F 41.0 °F 92% 30.18 in 7.0 mi South 8.1 mph - N/A   Scattered Clouds
2:55 AM 46.9 °F - 43.7 °F 88% 30.18 in 7.0 mi South 4.6 mph - N/A   Mostly Cloudy
3:15 AM 46.4 °F 43.5 °F 43.3 °F 89% 30.18 in 10.0 mi South 5.8 mph - N/A   Scattered Clouds
3:35 AM 44.4 °F 40.0 °F 42.1 °F 91% 30.17 in 10.0 mi South 8.1 mph - N/A   Clear
3:55 AM 44.8 °F 40.4 °F 42.6 °F 92% 30.17 in 7.0 mi South 8.1 mph - N/A   Clear
4:15 AM 45.0 °F 41.2 °F 42.4 °F 91% 30.18 in 10.0 mi South 6.9 mph - N/A   Clear
4:35 AM 45.7 °F 43.4 °F 42.8 °F 90% 30.18 in 10.0 mi SSE 4.6 mph - N/A   Scattered Clouds
4:55 AM 45.1 °F 43.7 °F 42.6 °F 91% 30.18 in 10.0 mi South 3.5 mph - N/A   Mostly Cloudy
5:15 AM 46.4 °F 45.2 °F 43.3 °F 89% 30.19 in 7.0 mi SE 3.5 mph - N/A   Overcast
5:35 AM 47.3 °F - 44.4 °F 90% 30.20 in 10.0 mi SSE 6.9 mph - N/A   Overcast
6:15 AM 47.5 °F - 44.6 °F 90% 30.20 in 7.0 mi SSE 6.9 mph - N/A   Overcast
6:35 AM 48.9 °F - 44.6 °F 85% 30.20 in 7.0 mi SSE 9.2 mph - N/A   Overcast
6:55 AM 48.6 °F - 44.6 °F 86% 30.21 in 10.0 mi SSE 6.9 mph - N/A   Mostly Cloudy
7:15 AM 48.9 °F - 44.6 °F 85% 30.20 in 10.0 mi SSE 8.1 mph - N/A   Mostly Cloudy
7:35 AM 48.4 °F - 44.6 °F 87% 30.20 in 10.0 mi SSE 5.8 mph - N/A   Mostly Cloudy
7:55 AM 49.6 °F - 45.3 °F 85% 30.20 in 7.0 mi SSE 8.1 mph - N/A   Mostly Cloudy
8:15 AM 51.3 °F - 45.9 °F 82% 30.20 in 7.0 mi SSE 9.2 mph - N/A   Overcast
8:35 AM 52.3 °F - 45.5 °F 78% 30.20 in 10.0 mi SSE 9.2 mph - N/A   Overcast
8:55 AM 53.4 °F - 45.9 °F 76% 30.20 in 10.0 mi SSE 9.2 mph - N/A   Overcast
9:15 AM 54.5 °F - 46.6 °F 75% 30.20 in 10.0 mi SSE 9.2 mph - N/A   Overcast
9:35 AM 55.2 °F - 46.4 °F 72% 30.20 in 10.0 mi SSE 11.5 mph - N/A   Overcast
9:55 AM 56.1 °F - 46.6 °F 70% 30.20 in 10.0 mi SSE 11.5 mph - N/A   Overcast
10:15 AM 56.3 °F - 46.4 °F 69% 30.20 in 10.0 mi SSE 9.2 mph - N/A   Overcast
10:35 AM 57.4 °F - 46.8 °F 68% 30.19 in 10.0 mi SSE 12.7 mph - N/A   Overcast
10:55 AM 59.0 °F - 47.7 °F 66% 30.18 in 10.0 mi SSE 11.5 mph - N/A   Overcast
11:15 AM 59.4 °F - 47.5 °F 65% 30.17 in 10.0 mi SSE 12.7 mph - N/A   Overcast
11:35 AM 60.1 °F - 48.0 °F 64% 30.15 in 10.0 mi SSE 15.0 mph - N/A   Overcast
11:55 AM 61.2 °F - 48.4 °F 63% 30.15 in 10.0 mi SSE 13.8 mph - N/A   Overcast
12:15 PM 63.0 °F - 49.1 °F 61% 30.14 in 10.0 mi SSE 13.8 mph - N/A   Overcast
12:35 PM 63.9 °F - 49.6 °F 60% 30.13 in 10.0 mi South 13.8 mph - N/A   Overcast
12:55 PM 65.8 °F - 50.0 °F 57% 30.13 in 7.0 mi South 15.0 mph - N/A   Mostly Cloudy
1:15 PM 65.5 °F - 50.4 °F 58% 30.11 in 10.0 mi South 15.0 mph - N/A   Scattered Clouds
1:35 PM 65.7 °F - 50.2 °F 57% 30.11 in 10.0 mi SSE 16.1 mph 20.7 mph N/A   Clear
1:55 PM 65.8 °F - 50.9 °F 58% 30.10 in 7.0 mi SSE 16.1 mph 19.6 mph N/A   Clear
2:15 PM 65.8 °F - 51.1 °F 59% 30.10 in 10.0 mi SSE 15.0 mph - N/A   Clear
2:35 PM 65.3 °F - 50.7 °F 59% 30.10 in 7.0 mi South 16.1 mph - N/A   Clear
2:55 PM 64.8 °F - 51.1 °F 61% 30.10 in 7.0 mi South 13.8 mph - N/A   Clear
3:15 PM 64.4 °F - 51.3 °F 62% 30.10 in 10.0 mi South 11.5 mph - N/A   Scattered Clouds
3:35 PM 63.9 °F - 51.3 °F 64% 30.10 in 10.0 mi SSE 10.4 mph - N/A   Mostly Cloudy
3:55 PM 63.9 °F - 50.9 °F 63% 30.10 in 10.0 mi South 10.4 mph - N/A   Mostly Cloudy
4:15 PM 62.1 °F - 50.9 °F 67% 30.10 in 10.0 mi SSE 9.2 mph - N/A   Scattered Clouds
4:35 PM 61.0 °F - 50.9 °F 69% 30.09 in 10.0 mi SSE 8.1 mph - N/A   Mostly Cloudy
4:55 PM 59.9 °F - 50.5 °F 71% 30.09 in 10.0 mi SSE 9.2 mph - N/A   Scattered Clouds
5:15 PM 59.2 °F - 50.0 °F 72% 30.08 in 10.0 mi SSE 9.2 mph - N/A   Mostly Cloudy
5:35 PM 59.5 °F - 49.6 °F 70% 30.08 in 10.0 mi SE 12.7 mph - N/A   Scattered Clouds
5:55 PM 60.1 °F - 49.1 °F 67% 30.08 in 10.0 mi SSE 11.5 mph - N/A   Scattered Clouds
6:15 PM 59.5 °F - 48.7 °F 67% 30.08 in 10.0 mi SSE 11.5 mph - N/A   Scattered Clouds
6:35 PM 59.4 °F - 48.7 °F 68% 30.07 in 10.0 mi SSE 11.5 mph - N/A   Clear
6:55 PM 59.4 °F - 48.9 °F 68% 30.07 in 10.0 mi SSE 11.5 mph - N/A   Clear
7:15 PM 59.4 °F - 49.1 °F 69% 30.07 in 10.0 mi SSE 10.4 mph - N/A   Clear
7:35 PM 59.4 °F - 48.4 °F 67% 30.07 in 7.0 mi SSE 12.7 mph - N/A   Clear
7:55 PM 59.0 °F - 47.8 °F 66% 30.07 in 10.0 mi SSE 10.4 mph - N/A   Clear
8:15 PM 58.1 °F - 47.3 °F 67% 30.07 in 10.0 mi SSE 9.2 mph - N/A   Clear
8:35 PM 57.4 °F - 46.9 °F 68% 30.07 in 10.0 mi SSE 9.2 mph - N/A   Clear
8:55 PM 56.7 °F - 46.9 °F 70% 30.07 in 10.0 mi SSE 9.2 mph - N/A   Clear
9:15 PM 57.2 °F - 47.3 °F 69% 30.06 in 10.0 mi SSE 11.5 mph - N/A   Clear
9:35 PM 58.3 °F - 47.7 °F 68% 30.07 in 10.0 mi SSE 10.4 mph - N/A   Scattered Clouds
9:55 PM 58.6 °F - 48.4 °F 69% 30.07 in 7.0 mi SSE 10.4 mph - N/A   Clear
10:15 PM 59.2 °F - 49.3 °F 70% 30.08 in 7.0 mi South 9.2 mph - N/A   Clear
10:35 PM 61.2 °F - 50.7 °F 69% 30.09 in 10.0 mi South 12.7 mph - N/A   Mostly Cloudy
10:55 PM 62.8 °F - 50.9 °F 65% 30.10 in 10.0 mi South 12.7 mph - N/A   Overcast
11:15 PM 62.4 °F - 50.9 °F 66% 30.09 in 10.0 mi South 11.5 mph - N/A   Overcast
11:35 PM 61.3 °F - 51.1 °F 69% 30.09 in 10.0 mi South 16.1 mph - N/A   Overcast
11:55 PM 61.7 °F - 51.3 °F 69% 30.08 in 10.0 mi South 16.1 mph - N/A   Overcast